CW8264 Weather Reports


Display with metric or nautical units.
time (UTC)temp
F
wind
direction
speed
MPH
gust
MPH
rain 1hr
in
rain 24hr
in
rain mn
in
humidity
%
barometer
mb
20260504044905 40 248 0.0 0.0 0.00 0.00 0.00 85 987.5
20260504044405 40 248 0.0 0.0 0.00 0.00 0.00 85 987.5
20260504043904 40 248 0.0 0.0 0.00 0.00 0.00 85 987.4
20260504042405 40 248 0.0 0.0 0.00 0.00 0.00 85 987.3
20260504041904 40 248 0.0 0.0 0.00 0.00 0.00 85 987.3
20260504041405 40 256 0.0 0.0 0.00 0.00 0.00 84 987.3
20260504040905 40 253 0.0 0.0 0.00 0.00 0.00 84 987.3
20260504040405 40 225 0.0 0.0 0.00 0.00 0.00 83 987.3
20260504035904 40 189 0.0 0.0 0.00 0.00 0.00 83 987.3
20260504035404 40 265 0.0 0.0 0.00 0.00 0.00 84 987.3
20260504034404 41 274 1.0 1.0 0.00 0.00 0.00 84 987.3
20260504033904 41 225 1.0 1.0 0.00 0.00 0.00 82 987.3
20260504033404 41 221 0.0 0.0 0.00 0.00 0.00 81 987.3
20260504032904 41 263 0.0 1.0 0.00 0.00 0.00 80 987.3
20260504032404 42 202 0.0 0.0 0.00 0.00 0.00 80 987.4
20260504031905 42 192 1.0 1.0 0.00 0.00 0.00 81 987.4
20260504031405 42 270 0.0 0.0 0.00 0.00 0.00 80 987.4
20260504030905 42 158 0.0 2.0 0.00 0.00 0.00 79 987.4
20260504030405 42 258 0.0 2.0 0.00 0.00 0.00 79 987.5
20260504025905 42 282 1.0 2.0 0.00 0.00 0.00 78 987.5
20260504025405 42 270 1.0 1.0 0.00 0.00 0.00 77 987.5
20260504024905 42 270 1.0 1.0 0.00 0.00 0.00 77 987.5
20260504024404 43 270 0.0 0.0 0.00 0.00 0.00 76 987.5
20260504023405 43 257 0.0 0.0 0.00 0.00 0.00 76 987.5
20260504022404 44 213 0.0 0.0 0.00 0.00 0.00 75 987.6
20260504021904 44 255 0.0 1.0 0.00 0.00 0.00 75 987.6
20260504020904 44 270 0.0 0.0 0.00 0.00 0.00 72 987.7
20260504020405 44 255 0.0 0.0 0.00 0.00 0.00 70 987.6
20260504015904 44 246 0.0 0.0 0.00 0.00 0.00 70 987.6
20260504015405 45 213 0.0 0.0 0.00 0.00 0.00 70 987.6
20260504014904 45 217 0.0 0.0 0.00 0.00 0.00 69 987.5
20260504014404 46 180 0.0 0.0 0.00 0.00 0.00 68 987.5
20260504013904 46 191 0.0 0.0 0.00 0.00 0.00 67 987.4
20260504013405 46 225 0.0 0.0 0.00 0.00 0.00 68 987.4
20260504012904 46 202 0.0 2.0 0.00 0.00 0.00 67 987.4
20260504012404 47 260 0.0 1.0 0.00 0.00 0.00 66 987.3
20260504011904 48 225 0.0 0.0 0.00 0.00 0.00 65 987.3
20260504011404 48 177 0.0 0.0 0.00 0.00 0.00 65 987.4
20260504010904 48 204 0.0 1.0 0.00 0.00 0.00 64 987.4
20260504005404 49 307 2.0 2.0 0.00 0.00 0.00 63 987.4
20260504004904 50 228 0.0 0.0 0.00 0.00 0.00 60 987.2
20260504004404 50 198 0.0 2.0 0.00 0.00 0.00 60 987.2
20260504003904 51 312 1.0 2.0 0.00 0.00 0.00 57 987.1
20260504002904 52 180 0.0 1.0 0.00 0.00 0.00 55 987.1
20260504002403 53 270 1.0 1.0 0.00 0.00 0.00 51 987.2
20260504001904 53 196 1.0 2.0 0.00 0.00 0.00 52 987.2
20260504001404 53 315 2.0 2.0 0.00 0.00 0.00 47 987.2
20260504000904 54 19 2.0 2.0 0.00 0.00 0.00 48 987.2
20260504000404 54 308 2.0 2.0 0.00 0.00 0.00 49 987.2
20260503235904 55 289 1.0 2.0 0.00 0.00 0.00 48 987.2
20260503235404 55 129 2.0 3.0 0.00 0.00 0.00 45 987.2
20260503234907 56 301 2.0 3.0 0.00 0.00 0.00 44 987.2
20260503233908 57 202 2.0 3.0 0.00 0.00 0.00 41 987.3
20260503233408 57 224 3.0 5.0 0.00 0.00 0.00 41 987.3
20260503232907 58 226 3.0 5.0 0.00 0.00 0.00 40 987.3
20260503232407 58 202 2.0 6.0 0.00 0.00 0.00 40 987.3
20260503231907 58 246 1.0 5.0 0.00 0.00 0.00 41 987.3
20260503231408 58 112 3.0 8.0 0.00 0.00 0.00 39 987.4
20260503230908 59 221 4.0 7.0 0.00 0.00 0.00 38 987.4
20260503230407 59 171 6.0 8.0 0.00 0.00 0.00 37 987.4
20260503225907 59 234 4.0 6.0 0.00 0.00 0.00 37 987.4
20260503225408 60 261 3.0 7.0 0.00 0.00 0.00 37 987.4
20260503224907 60 197 5.0 6.0 0.00 0.00 0.00 36 987.4
20260503224408 60 224 5.0 9.0 0.00 0.00 0.00 36 987.4
20260503223408 59 209 3.0 6.0 0.00 0.00 0.00 37 987.6
20260503222908 60 250 4.0 7.0 0.00 0.00 0.00 37 987.6
20260503222408 60 175 4.0 7.0 0.00 0.00 0.00 36 987.5
20260503221907 60 253 6.0 9.0 0.00 0.00 0.00 35 987.5
20260503221408 61 227 6.0 13.0 0.00 0.00 0.00 35 987.5
20260503220907 61 230 6.0 12.0 0.00 0.00 0.00 35 987.5
20260503220407 61 259 7.0 10.0 0.00 0.00 0.00 34 987.4
20260503215907 61 240 9.0 13.0 0.00 0.00 0.00 34 987.4
20260503214907 62 212 4.0 7.0 0.00 0.00 0.00 35 987.4
20260503213907 61 165 5.0 9.0 0.00 0.00 0.00 35 987.2
20260503212907 60 149 5.0 7.0 0.00 0.00 0.00 37 987.2
20260503212408 61 228 5.0 10.0 0.00 0.00 0.00 35 987.4
20260503211907 60 167 9.0 10.0 0.00 0.00 0.00 36 987.4
20260503211407 60 256 6.0 15.0 0.00 0.00 0.00 36 987.5
20260503210907 62 175 5.0 7.0 0.00 0.00 0.00 35 987.5
20260503205407 60 171 4.0 12.0 0.00 0.00 0.00 37 987.5
20260503204907 63 292 3.0 12.0 0.00 0.00 0.00 34 987.7
20260503204408 62 248 6.0 9.0 0.00 0.00 0.00 36 987.7
20260503203908 61 112 5.0 7.0 0.00 0.00 0.00 35 987.9
20260503203407 60 165 5.0 7.0 0.00 0.00 0.00 35 987.9
20260503201907 61 106 5.0 10.0 0.00 0.00 0.00 37 988.0
20260503201408 61 143 5.0 10.0 0.00 0.00 0.00 35 988.0
20260503200907 60 141 6.0 8.0 0.00 0.00 0.00 36 988.0
20260503195907 62 159 6.0 8.0 0.00 0.00 0.00 35 988.2
20260503195407 62 250 3.0 8.0 0.00 0.00 0.00 36 988.2
20260503194907 61 233 7.0 9.0 0.00 0.00 0.00 34 988.4
20260503194406 62 145 5.0 9.0 0.00 0.00 0.00 35 988.4
20260503193407 62 215 7.0 12.0 0.00 0.00 0.00 35 988.4
20260503192907 61 139 9.0 13.0 0.00 0.00 0.00 35 988.4
20260503192407 62 180 8.0 15.0 0.00 0.00 0.00 35 988.8
20260503191907 61 208 6.0 9.0 0.00 0.00 0.00 36 988.8
20260503191407 59 269 6.0 7.0 0.00 0.00 0.00 37 988.9
20260503190906 60 218 3.0 8.0 0.00 0.00 0.00 37 988.9
20260503185906 59 218 7.0 10.0 0.00 0.00 0.00 36 989.0
20260503184407 61 158 6.0 9.0 0.00 0.00 0.00 36 989.1
20260503183906 61 216 9.0 10.0 0.00 0.00 0.00 35 989.3
20260503183407 62 222 6.0 10.0 0.00 0.00 0.00 37 989.3
20260503182407 60 177 7.0 10.0 0.00 0.00 0.00 36 989.4
20260503181907 60 194 7.0 17.0 0.00 0.00 0.00 36 989.4
20260503181406 62 255 5.0 9.0 0.00 0.00 0.00 34 989.7
20260503180907 61 222 4.0 9.0 0.00 0.00 0.00 36 989.7
20260503180406 61 334 9.0 14.0 0.00 0.00 0.00 35 989.7
20260503175406 61 131 6.0 8.0 0.00 0.00 0.00 35 989.7
20260503174907 60 223 8.0 18.0 0.00 0.00 0.00 36 989.9
20260503174407 60 179 6.0 9.0 0.00 0.00 0.00 38 989.9
20260503173907 58 205 7.0 8.0 0.00 0.00 0.00 38 989.9
20260503173407 59 256 6.0 9.0 0.00 0.00 0.00 35 989.9
20260503172907 60 212 5.0 10.0 0.00 0.00 0.00 36 989.9
20260503172406 58 202 7.0 7.0 0.00 0.00 0.00 39 990.0
20260503171907 58 190 6.0 10.0 0.00 0.00 0.00 37 990.0
20260503171407 58 178 4.0 9.0 0.00 0.00 0.00 37 990.1
20260503170906 58 161 4.0 6.0 0.00 0.00 0.00 38 990.1
20260503170406 58 180 5.0 6.0 0.00 0.00 0.00 36 990.2
20260503150906 54 152 5.0 8.0 0.00 0.00 0.00 41 991.1
20260503150406 53 292 7.0 10.0 0.00 0.00 0.00 40 991.1
20260503131406 47 239 5.0 7.0 0.00 0.00 0.00 61 991.6
20260503130907 46 225 6.0 9.0 0.00 0.00 0.00 61 991.6
20260503090406 32 266 0.0 0.0 0.00 0.00 0.00 93 990.1
20260503081405 34 262 0.0 0.0 0.00 0.00 0.00 93 990.1
20260503080905 34 194 0.0 0.0 0.00 0.00 0.00 93 990.1
20260503080405 34 202 0.0 0.0 0.00 0.00 0.00 93 990.0
20260503072905 34 202 0.0 0.0 0.00 0.00 0.00 93 989.9
20260503072405 34 225 0.0 1.0 0.00 0.00 0.00 93 989.9
20260503071905 34 270 1.0 1.0 0.00 0.00 0.00 93 989.9
20260503071405 34 180 0.0 0.0 0.00 0.00 0.00 93 989.8
20260503070905 34 173 0.0 0.0 0.00 0.00 0.00 93 989.8
20260503070405 34 202 0.0 0.0 0.00 0.00 0.00 93 989.7
20260503054904 33 270 0.0 0.0 0.00 0.00 0.00 91 989.9
20260503054404 33 258 0.0 1.0 0.00 0.00 0.00 90 989.9
20260503053404 33 215 0.0 1.0 0.00 0.00 0.00 90 989.9
20260503052905 33 225 0.0 1.0 0.00 0.00 0.00 90 989.9
20260503052405 33 225 0.0 1.0 0.00 0.00 0.00 90 989.9
20260503051905 33 272 1.0 1.0 0.00 0.00 0.00 89 989.9
20260503051405 33 265 0.0 0.0 0.00 0.00 0.00 86 990.0
20260503050405 34 202 0.0 0.0 0.00 0.00 0.00 87 990.0
20260503045905 34 225 0.0 0.0 0.00 0.00 0.00 85 990.0
20260503045404 35 225 0.0 0.0 0.00 0.00 0.00 86 990.0